Dimanche 08 décembre 2019   -   semaine 49                    on fête: Imm.Conc.                    soleil  (-1 mn) lever du soleil 08:15:00 coucher du soleil 17:00:00                    lune Lune gibbeuse croissante
Sélection

Sélection d'un SYNOP

   Synop:       

  Période à consulter:

Actuelle
Archive     

Relevé

Dernier relevé du SYNOP pour la période choisie

Conditions météo à la station de Vichy/Charmeil (4610N 00324E)    altitude 251m

Date du relevé08/12/2019 à 13:00
Visibilité20km
Vent7 km/h S
Température12.4 C
Température mini / 12h43.0 C
Humidité70.1 %
Point de rosée7.1 C
Pression absolue986.4 hPa
Pression relative1016.2 hPa
Variation pression-2.2 hPa stationnaire ou en hausse puis en baisse, puis en baisse plus rapide
Précipitations0 mm les 6 dernières heures

24h

Historique de la période choisie

Certaines stations ne diffusent pas en continu, d'où l'absence possible de données à certaines heures. Le tableau ci-dessous récapitule l'historique des relevés de la station de Vichy/Charmeil.

Date - Heure Base des nuages Visibilité Nébulosité Vent - Secteur Température Humidité Point rosée Pression / Géopotentiel Précipitations Temps
08/12 13:00 20km 7 km/h S 12.4 C 70.1 % 7.1 C 1016.2 hPa 0 mm/6h
08/12 12:00 20km 7 km/h S 11.6 C 71.9 % 6.7 C 1017.6 hPa
08/12 11:00 20km 7 km/h S 10.5 C 74.2 % 6.1 C 1018.8 hPa
08/12 10:00 20km 6 km/h S 9.7 C 78.8 % 6.2 C 1018.8 hPa
08/12 09:00 20km 7 km/h S 7.8 C 84.8 % 5.4 C 1019.1 hPa
08/12 08:00 20km 7 km/h SSE 6.6 C 90.8 % 5.2 C 1019.2 hPa
08/12 07:00 20km 6 km/h S 7.6 C 90.8 % 6.2 C 1019.4 hPa 0 mm/12h
08/12 06:00 20km 4 km/h S 7.0 C 94.0 % 6.1 C 1019.7 hPa
08/12 05:00 17km 2 km/h S 6.6 C 97.3 % 6.2 C 1020.2 hPa
08/12 04:00 20km 2 km/h SSO 8.3 C 90.3 % 6.8 C 1020.2 hPa
08/12 03:00 20km 2 km/h S 8.3 C 90.3 % 6.8 C 1021.0 hPa
08/12 02:00 20km 2 km/h S 7.7 C 94.7 % 6.9 C 1021.3 hPa
08/12 01:00 19km 2 km/h S 7.9 C 94.7 % 7.1 C 1021.8 hPa 0 mm/6h
08/12 00:00 13km 2 km/h SO 7.8 C 97.3 % 7.4 C 1022.2 hPa
07/12 23:00 18km 2 km/h S 8.2 C 94.7 % 7.4 C 1022.6 hPa
07/12 22:00 19km 4 km/h S 8.6 C 94.1 % 7.7 C 1022.3 hPa
07/12 21:00 19km 4 km/h S 8.3 C 96.0 % 7.7 C 1022.6 hPa
07/12 20:00 15km 4 km/h S 8.0 C 98.0 % 7.7 C 1022.6 hPa
07/12 19:00 20km 2 km/h S 7.9 C 97.3 % 7.5 C 1022.7 hPa 0.4 mm/12h
07/12 18:00 10km 0 km/h N 8.0 C 96.0 % 7.4 C 1022.3 hPa
07/12 17:00 17km 4 km/h S 9.0 C 96.7 % 8.5 C 1021.9 hPa
07/12 16:00 6km 2 km/h S 9.4 C 96.0 % 8.8 C 1021.8 hPa
07/12 15:00 7km 4 km/h SSE 9.6 C 92.9 % 8.5 C 1021.6 hPa
07/12 14:00 18km 2 km/h S 10.0 C 83.9 % 7.4 C 1021.7 hPa
07/12 13:00 20km 4 km/h S 9.5 C 86.7 % 7.4 C 1021.9 hPa traces/6h

Source: ogimet